When you browse on this site, cookies collect data to enhance your experience and personalize the content and advertising you see.
Visit our Privacy Policy to learn more. By continuing to use the site, you agree to this use of cookies and data.

Meteo pe oră la Georgetown

Astăzi, 4 August, Marţi

Timp Temperatura Precipitaţii Vânt Presiune Umiditate
00:00 +28°C° 0.1 mm 8 m/s 734 mmHg 78%
01:00 +28°C° 0 mm 9 m/s 734 mmHg 78%
02:00 +28°C° 0 mm 9 m/s 734 mmHg 79%
03:00 +28°C° 0 mm 9 m/s 734 mmHg 80%
04:00 +28°C° 0 mm 9 m/s 734 mmHg 81%
05:00 +28°C° 0 mm 10 m/s 734 mmHg 81%
06:00 +27°C° 0 mm 10 m/s 734 mmHg 81%
07:00 +27°C° 0 mm 10 m/s 735 mmHg 81%
08:00 +28°C° 0 mm 9 m/s 735 mmHg 79%
09:00 +28°C° 0 mm 9 m/s 735 mmHg 76%
10:00 +28°C° 0 mm 8 m/s 736 mmHg 74%
11:00 +29°C° 0 mm 8 m/s 735 mmHg 72%
12:00 +29°C° 0 mm 7 m/s 735 mmHg 70%
13:00 +30°C° 0 mm 7 m/s 734 mmHg 68%
14:00 +30°C° 0 mm 6 m/s 734 mmHg 67%
15:00 +30°C° 0 mm 5 m/s 733 mmHg 66%
16:00 +32°C° 0 mm 5 m/s 732 mmHg 65%
17:00 +30°C° 0 mm 4 m/s 732 mmHg 66%
18:00 +30°C° 0 mm 4 m/s 732 mmHg 68%
19:00 +30°C° 0 mm 4 m/s 733 mmHg 69%
20:00 +30°C° 0 mm 4 m/s 733 mmHg 71%
21:00 +29°C° 0 mm 5 m/s 733 mmHg 73%
22:00 +29°C° 0 mm 5 m/s 733 mmHg 75%
23:00 +29°C° 0 mm 6 m/s 733 mmHg 76%

Mâine, 5 August, Miercuri

Timp Temperatura Precipitaţii Vânt Presiune Umiditate
00:00 +29°C° 0 mm 7 m/s 733 mmHg 77%
01:00 +29°C° 0 mm 7 m/s 733 mmHg 78%
02:00 +28°C° 0 mm 7 m/s 733 mmHg 77%
03:00 +28°C° 0 mm 8 m/s 732 mmHg 76%
04:00 +28°C° 0 mm 8 m/s 732 mmHg 75%
05:00 +28°C° 0.1 mm 9 m/s 733 mmHg 75%
06:00 +28°C° 0.1 mm 9 m/s 733 mmHg 76%
07:00 +28°C° 0.1 mm 10 m/s 734 mmHg 76%
08:00 +28°C° 0 mm 9 m/s 734 mmHg 75%
09:00 +29°C° 0 mm 9 m/s 734 mmHg 73%
10:00 +29°C° 0 mm 8 m/s 734 mmHg 72%
11:00 +31°C° 0 mm 8 m/s 733 mmHg 71%
12:00 +31°C° 0 mm 8 m/s 733 mmHg 70%
13:00 +31°C° 0 mm 8 m/s 732 mmHg 68%
14:00 +32°C° 0 mm 7 m/s 731 mmHg 68%
15:00 +32°C° 0 mm 7 m/s 731 mmHg 68%
16:00 +32°C° 0 mm 7 m/s 730 mmHg 68%
17:00 +32°C° 0.1 mm 7 m/s 730 mmHg 69%
18:00 +32°C° 0.1 mm 7 m/s 731 mmHg 71%
19:00 +30°C° 0.1 mm 7 m/s 731 mmHg 72%
20:00 +30°C° 0.6 mm 7 m/s 732 mmHg 73%
21:00 +31°C° 0.6 mm 8 m/s 732 mmHg 75%
22:00 +29°C° 0.6 mm 9 m/s 733 mmHg 76%
23:00 +29°C° 0.3 mm 9 m/s 732 mmHg 77%

Poimâine, 6 August, Joi

Timp Temperatura Precipitaţii Vânt Presiune Umiditate
00:00 +29°C° 0.3 mm 9 m/s 732 mmHg 78%
01:00 +29°C° 0.3 mm 9 m/s 732 mmHg 78%
02:00 +28°C° 0.1 mm 10 m/s 731 mmHg 79%
03:00 +28°C° 0.1 mm 10 m/s 731 mmHg 80%
04:00 +28°C° 0.1 mm 10 m/s 731 mmHg 81%
05:00 +27°C° 1.5 mm 11 m/s 731 mmHg 83%
06:00 +27°C° 1.5 mm 11 m/s 732 mmHg 85%
07:00 +27°C° 1.5 mm 11 m/s 732 mmHg 87%
08:00 +26°C° 7.1 mm 11 m/s 733 mmHg 89%
09:00 +26°C° 7.1 mm 10 m/s 733 mmHg 92%
10:00 +26°C° 7.1 mm 9 m/s 733 mmHg 94%
11:00 +26°C° 3.1 mm 9 m/s 733 mmHg 92%
12:00 +27°C° 3.1 mm 9 m/s 733 mmHg 89%
13:00 +27°C° 3.1 mm 10 m/s 733 mmHg 87%
14:00 +27°C° 0.6 mm 9 m/s 733 mmHg 86%
15:00 +27°C° 0.6 mm 9 m/s 732 mmHg 86%
16:00 +27°C° 0.6 mm 9 m/s 732 mmHg 85%
17:00 +27°C° 0.2 mm 9 m/s 732 mmHg 86%
18:00 +27°C° 0.2 mm 8 m/s 732 mmHg 86%
19:00 +27°C° 0.2 mm 8 m/s 733 mmHg 87%
20:00 +27°C° 0 mm 8 m/s 733 mmHg 87%
21:00 +27°C° 0 mm 8 m/s 734 mmHg 87%
22:00 +27°C° 0 mm 8 m/s 734 mmHg 87%
23:00 +26°C° 0.1 mm 8 m/s 734 mmHg 87%

7 August, Vineri

Timp Temperatura Precipitaţii Vânt Presiune Umiditate
00:00 +26°C° 0.1 mm 8 m/s 734 mmHg 86%
01:00 +26°C° 0.1 mm 8 m/s 734 mmHg 86%
02:00 +26°C° 0.4 mm 8 m/s 734 mmHg 87%
03:00 +26°C° 0.4 mm 8 m/s 734 mmHg 87%
04:00 +26°C° 0.4 mm 8 m/s 734 mmHg 87%
05:00 +26°C° 0.1 mm 8 m/s 734 mmHg 87%
06:00 +26°C° 0.1 mm 8 m/s 735 mmHg 87%
07:00 +26°C° 0.1 mm 8 m/s 735 mmHg 86%
08:00 +26°C° 0 mm 8 m/s 735 mmHg 85%
09:00 +26°C° 0 mm 8 m/s 736 mmHg 84%
10:00 +27°C° 0 mm 8 m/s 736 mmHg 83%
11:00 +27°C° 0 mm 8 m/s 736 mmHg 80%
12:00 +28°C° 0 mm 7 m/s 735 mmHg 77%
13:00 +28°C° 0 mm 7 m/s 735 mmHg 74%
14:00 +29°C° 0 mm 5 m/s 734 mmHg 73%
15:00 +29°C° 0 mm 4 m/s 734 mmHg 71%
16:00 +29°C° 0 mm 3 m/s 734 mmHg 70%
17:00 +29°C° 0 mm 2 m/s 734 mmHg 71%
18:00 +29°C° 0 mm 2 m/s 734 mmHg 72%
19:00 +29°C° 0 mm 1 m/s 734 mmHg 73%
20:00 +29°C° 0 mm 1 m/s 735 mmHg 73%
21:00 +29°C° 0 mm 2 m/s 735 mmHg 74%
22:00 +29°C° 0 mm 2 m/s 736 mmHg 75%
23:00 +28°C° 0 mm 3 m/s 736 mmHg 77%

8 August, Sâmbătă

Timp Temperatura Precipitaţii Vânt Presiune Umiditate
00:00 +28°C° 0 mm 4 m/s 736 mmHg 78%
01:00 +28°C° 0 mm 6 m/s 736 mmHg 79%
02:00 +28°C° 0.1 mm 6 m/s 736 mmHg 79%
03:00 +28°C° 0.1 mm 7 m/s 736 mmHg 79%
04:00 +28°C° 0.1 mm 8 m/s 736 mmHg 79%
05:00 +28°C° 0 mm 8 m/s 736 mmHg 79%
06:00 +27°C° 0 mm 8 m/s 736 mmHg 79%
07:00 +27°C° 0 mm 8 m/s 736 mmHg 79%
08:00 +28°C° 0 mm 8 m/s 736 mmHg 77%
09:00 +28°C° 0 mm 7 m/s 737 mmHg 75%
10:00 +28°C° 0 mm 7 m/s 737 mmHg 73%
11:00 +28°C° 0 mm 7 m/s 736 mmHg 70%
12:00 +29°C° 0 mm 6 m/s 735 mmHg 68%
13:00 +29°C° 0 mm 5 m/s 735 mmHg 65%
14:00 +30°C° 0 mm 5 m/s 734 mmHg 64%
15:00 +30°C° 0 mm 4 m/s 734 mmHg 64%
16:00 +30°C° 0 mm 3 m/s 733 mmHg 63%
17:00 +30°C° 0 mm 3 m/s 733 mmHg 64%
18:00 +30°C° 0 mm 2 m/s 733 mmHg 65%
19:00 +30°C° 0 mm 2 m/s 734 mmHg 67%
20:00 +30°C° 0 mm 3 m/s 734 mmHg 68%
21:00 +30°C° 0 mm 4 m/s 735 mmHg 70%
22:00 +29°C° 0 mm 4 m/s 735 mmHg 71%
23:00 +29°C° 0 mm 5 m/s 735 mmHg 73%

9 August, Duminică

Timp Temperatura Precipitaţii Vânt Presiune Umiditate
00:00 +29°C° 0 mm 5 m/s 734 mmHg 74%
01:00 +29°C° 0 mm 6 m/s 734 mmHg 75%
02:00 +29°C° 0 mm 7 m/s 734 mmHg 74%
03:00 +29°C° 0 mm 7 m/s 733 mmHg 74%
04:00 +29°C° 0 mm 8 m/s 733 mmHg 73%
05:00 +29°C° 0 mm 8 m/s 734 mmHg 73%
06:00 +29°C° 0 mm 9 m/s 734 mmHg 73%
07:00 +29°C° 0 mm 9 m/s 734 mmHg 72%
08:00 +29°C° 0 mm 9 m/s 734 mmHg 71%
09:00 +29°C° 0 mm 9 m/s 734 mmHg 69%
10:00 +31°C° 0 mm 9 m/s 735 mmHg 68%
11:00 +31°C° 0 mm 8 m/s 734 mmHg 66%
12:00 +32°C° 0 mm 7 m/s 733 mmHg 64%
13:00 +32°C° 0 mm 6 m/s 733 mmHg 62%
14:00 +32°C° 0 mm 5 m/s 732 mmHg 61%
15:00 +33°C° 0 mm 5 m/s 731 mmHg 60%
16:00 +33°C° 0 mm 4 m/s 731 mmHg 60%
17:00 +33°C° 0 mm 4 m/s 731 mmHg 61%
18:00 +32°C° 0 mm 4 m/s 731 mmHg 61%
19:00 +32°C° 0 mm 4 m/s 731 mmHg 62%
20:00 +32°C° 0.1 mm 5 m/s 732 mmHg 66%
21:00 +30°C° 0.1 mm 6 m/s 732 mmHg 69%
22:00 +30°C° 0.1 mm 7 m/s 733 mmHg 72%
23:00 +31°C° 0.1 mm 8 m/s 732 mmHg 73%
Arată mai mult